Location: Cannifist
(18.2333°N, 63.0167°W)
Time: 04:29:15
(UTC+00:00)

Cosmos 1464 Rocket - Pass Details

Date: 27 February 2020
Orbit: 951 x 1002 km, 82.9° (Epoch: 04 April)

Event Time Altitude Azimuth Distance (km) Brightness Sun altitude
Rises 23:08:58 0° 190° (S) 3,689 7.2 -13.0°
Reaches altitude 10° 23:11:29 10° 192° (SSW) 2,748 6.6 -13.6°
Maximum altitude 23:17:45 68° 275° (W) 1,069 4.4 -15.1°
Drops below altitude 10° 23:24:05 10° 357° (N) 2,770 6.4 -16.6°
Sets 23:26:39 0° 0° (N) 3,721 7.0 -17.2°
